Location: Holyhead Bay
(53.3667°N, 4.6667°W)
Time: 16:36:39
(UTC+00:00)

IRIDIUM 33 DEB - Visible Passes

Search period start: 25 September 2021 00:00
Search period end: 05 October 2021 00:00
Orbit: 588 x 600 km, 86.4° (Epoch: 24 September)

Date Brightness Start Highest point End Pass type
(mag) Time Alt. Az. Time Alt. Az. Time Alt. Az.
25 Sep ? 03:41:59 10° NNE 03:45:17 21° ENE 03:48:32 10° ESE visible
25 Sep ? 05:18:20 10° NNW 05:22:30 52° W 05:26:38 10° SSW visible
26 Sep ? 03:51:07 10° NNE 03:54:49 28° ENE 03:58:30 10° SE visible
26 Sep ? 05:27:52 10° NNW 05:31:49 37° W 05:35:44 10° SSW visible
27 Sep ? 04:00:18 10° N 04:04:18 37° ENE 04:08:15 10° SSE visible
28 Sep ? 04:09:31 10° N 04:13:43 51° E 04:17:51 10° SSE visible
29 Sep ? 02:44:20 10° NE 02:45:19 11° ENE 02:46:17 10° ENE visible
29 Sep ? 04:18:47 10° N 04:23:04 72° E 04:27:18 10° S visible
29 Sep ? 18:30:54 10° WSW 18:33:46 17° WNW 18:36:38 10° NNW visible
30 Sep ? 02:52:30 10° NNE 02:54:50 14° ENE 02:57:09 10° E visible
30 Sep ? 04:28:05 10° N 04:32:22 83° W 04:36:36 10° S visible
30 Sep ? 18:41:13 10° W 18:43:14 13° WNW 18:45:16 10° NW visible
01 Oct ? 03:01:15 10° NNE 03:04:18 19° ENE 03:07:19 10° ESE visible
01 Oct ? 04:37:23 10° N 04:41:37 60° W 04:45:46 10° S visible
02 Oct ? 03:10:10 10° NNE 03:13:42 25° ENE 03:17:12 10° SE visible
02 Oct ? 04:46:44 10° NNW 04:50:47 43° W 04:54:47 10° SSW visible
03 Oct ? 03:19:10 10° NNE 03:23:02 33° ENE 03:26:52 10° SE visible
03 Oct ? 04:56:08 10° NNW 04:59:54 31° W 05:03:39 10° SW visible
04 Oct ? 03:28:13 10° N 03:32:19 44° E 03:34:52 20° SE visible
04 Oct ? 05:05:34 10° NNW 05:08:58 23° W 05:11:22 15° SW visible
